Regional Weather Roundup
Issued by NWS Newport/Morehead, NC

Current Version | Previous Version | Text Only | Print | Product List | Glossary On
Versions: 1 2 3 4 5 6 7 8 9 10 11 12 13 14 15 16 17 18 19 20 21 22 23 24 25 26 27 28 29 30 31 32 33 34 35 36 37 38 39 40 41 42 43 44 45 46 47 48 49 50
000
ASUS42 KMHX 241322
RWRMHX
WEATHER ROUNDUP FOR EASTERN NORTH CAROLINA
NATIONAL WEATHER SERVICE NEWPORT/MOREHEAD CITY NC
800 AM EST WED DEC 24 2014

NOTE: "FAIR" INDICATES FEW OR NO CLOUDS BELOW 12,000 FEET
WITH NO SIGNIFICANT WEATHER AND/OR OBSTRUCTIONS TO VISIBILITY

NCZ015>017-031-032-045>047-102-103-241400-
NORTH COAST

CITY           SKY/WX    TMP DP  RH WIND       PRES   REMARKS
EDENTON        CLOUDY    62  62  99 S9        29.88S
ELIZABETH CITY CLOUDY    67  62  84 S7        29.88S
KITTY HAWK     CLOUDY    64  64 100 SE9       29.89S
MANTEO         NOT AVBL

$$

NCZ045>047-081-094-103-104-241400-
CENTRAL COAST

CITY           SKY/WX    TMP DP  RH WIND       PRES   REMARKS
FRISCO         CLOUDY    63  63 100 S13       29.92S
SWANQUARTER      N/A     61 N/A N/A S13       29.85S

$$

NCZ095-097-098-100-101-241400-
SOUTHERN COAST

CITY           SKY/WX    TMP DP  RH WIND       PRES   REMARKS
BEAUFORT       CLOUDY    68  66  93 S17       29.89S
CEDAR ISLAND     N/A     68 N/A N/A SE13G22   29.94S
JACKSONVILLE   CLOUDY    70  67  90 S15G22    29.86S
PINEY ISLAND   LGT RAIN  70  66  87 S12G20    29.90R
WILMINGTON     LGT RAIN  70  68  93 S15       29.85R


$$

NCZ011>013-027>030-043-044-078>080-089-090>093-098-241400-
COASTAL PLAIN

CITY           SKY/WX    TMP DP  RH WIND       PRES   REMARKS
AHOSKIE        LGT RAIN  62  61  98 S8        29.85S
CLINTON        LGT RAIN  67  67 100 S7        29.82S
ELIZABETHTOWN  RAIN      68  68 100 S9        29.82R
GOLDSBORO      RAIN      68  68 100 S13G21    29.81S FOG
GREENVILLE     LGT RAIN  64  64 100 S13       29.87S
HAVELOCK       CLOUDY    70  68  93 S14G20    29.90R FOG
KENANSVILLE    LGT RAIN  68  67  98 SE6       29.83F
KINSTON        RAIN      66  66 100 S13G18    29.85S
NEW BERN       CLOUDY    72  68  87 S14       29.88S
RICHLANDS      CLOUDY    70  66  88 S14G21    29.85F
ROCKY MOUNT    RAIN      54  53  97 CALM      29.82F FOG
WASHINGTON     CLOUDY    66  65  97 SE7       29.87S
WHITEVILLE     RAIN      69  67  93 S12G18    29.82F

$$

AMZ130-135-150-152-154-156-158-170-250-252-270-ANZ085-086-088-633-658-670-241400-
MARINE OBSERVATIONS

STATION/POSITION TIME  TEMP    WIND        PRES    WAVE   SWELL
                       AIR SEA DIR/SP/G            HT/PER HT/PER
                 (UTC) (F)     (DEG/KT/KT) (MB)    (FT/S) (FT/S)
CHESAPEAKE LIGHT 1300   56     180/ 21/ 22 1011.6
64 E VA BEACH    1300   61 53  160/ 14/ 17 1011.9    4/ 7   3/ 7
DUCK             1300   62 48  170/ 16/ 20 1011.1
2 E DUCK         1300      48                N/A     4/ 8
10 NE DUCK       1300      50                N/A     4/ 8   2/11
OREGON INLET     1300   64 50  150/  9/ 12 1012.6
13E OREGON INLT  1300      53                N/A     4/ 8   2/11
HATTERAS CG      1300   66 54  180/  9/ 14 1013.6
DIAMOND BUOY     1300   75                 1012.5    6/ 5
17 S OCRACOKE    NOT AVBL
CAPE LOOKOUT     1300   64     170/ 15/ 17 1012.5
BEAUFORT LAB     1300   63 53  160/ 12/ 17 1011.2
30 SE NEW RIVER  1300   68 61  180/ 17/ 19 1012.3    5/ 6   2/11
5 SE WRIGHTSVLE  NOT AVBL
225 S CAPE HAT   1210   74 72  190/ 16/ 17 1016.5    4/ 6   2/ 9
41 SE CHARLESTON 1300   76 73  170/ 21/ 25 1009.1    6/ 7

$$



USA.gov is the U.S. government's official web portal to all federal, state and local government web resources and services.